�N����,����,�~����,�C��,���x,�C��,����,���ϕ���,�ő�u�ԕ���,�ő厞����,���˗�,�I�_���x,�n�����x,�ő啗���N��,DTYPE
"21/05/12","00:10",0.0,12.9,80.8,1012.3,328.0,2.2,3.3,309.7,0.00,9.7,130.0,"00:01:20",1
"21/05/12","00:20",0.0,12.6,81.5,1011.9,331.2,1.8,3.3,328.4,0.00,9.6,130.0,"00:12:08",1
"21/05/12","00:30",0.0,12.3,82.3,1012.1,324.2,2.0,2.9,304.5,0.00,9.4,130.0,"00:26:10",1
"21/05/12","00:40",0.0,12.3,83.0,1011.9,321.8,2.2,3.3,312.4,0.00,9.5,130.0,"00:33:44",1
"21/05/12","00:50",0.0,12.2,83.1,1011.6,311.8,2.5,4.0,340.1,0.00,9.5,130.0,"00:46:08",1
"21/05/12","01:00",0.0,12.1,83.1,1011.9,316.4,2.7,3.9,327.4,0.00,9.4,130.0,"00:52:48",1
"21/05/12","01:10",0.0,12.1,83.0,1011.9,316.3,2.3,4.3,336.9,0.00,9.3,130.0,"01:04:58",1
"21/05/12","01:20",0.0,12.0,82.7,1012.6,304.1,2.1,3.7,308.9,0.00,9.2,130.0,"01:16:56",1
"21/05/12","01:30",0.0,12.0,82.5,1012.1,320.0,3.2,5.0,341.9,0.00,9.2,130.0,"01:23:04",1
"21/05/12","01:40",0.0,12.2,82.1,1011.9,321.0,3.0,4.1,322.5,0.00,9.3,130.0,"01:32:56",1
"21/05/12","01:50",0.0,12.2,81.8,1011.6,330.6,2.8,5.1,333.7,0.00,9.2,130.0,"01:41:06",1
"21/05/12","02:00",0.0,12.1,81.9,1012.1,333.8,2.6,5.1,340.5,0.00,9.1,130.0,"01:57:52",1
"21/05/12","02:10",0.0,12.1,81.9,1012.1,332.8,3.0,4.8,341.1,0.00,9.1,130.0,"02:08:16",1
"21/05/12","02:20",0.0,12.1,81.9,1011.6,326.9,2.8,4.3,323.8,0.00,9.1,130.0,"02:14:10",1
"21/05/12","02:30",0.0,12.2,81.9,1011.6,326.4,3.4,4.7,317.4,0.00,9.2,130.0,"02:23:28",1
"21/05/12","02:40",0.0,12.2,82.0,1011.9,325.4,2.6,4.0,330.4,0.00,9.3,130.0,"02:31:36",1
"21/05/12","02:50",0.0,12.0,82.3,1011.9,336.3,2.1,3.1,329.9,0.00,9.1,130.0,"02:48:52",1
"21/05/12","03:00",0.0,11.9,82.7,1012.1,339.7,2.2,3.5,342.4,0.00,9.1,130.0,"02:52:32",1
"21/05/12","03:10",0.0,11.9,83.0,1012.1,344.8,2.0,3.4,340.2,0.00,9.1,130.0,"03:04:08",1
"21/05/12","03:20",0.0,11.7,83.6,1012.1,330.9,2.1,3.2,338.4,0.00,9.1,130.0,"03:17:36",1
"21/05/12","03:30",0.0,11.8,84.3,1012.3,323.3,2.5,3.3,335.5,0.00,9.3,130.0,"03:22:32",1
"21/05/12","03:40",0.0,11.7,84.7,1012.3,325.9,2.6,3.4,322.1,0.00,9.3,130.0,"03:32:24",1
"21/05/12","03:50",0.0,11.6,84.8,1012.1,307.1,2.0,3.2,337.2,0.00,9.2,130.0,"03:41:20",1
"21/05/12","04:00",0.0,11.5,84.6,1012.3,303.9,1.8,2.6,316.4,0.00,9.0,130.0,"03:52:48",1
"21/05/12","04:10",0.0,11.4,84.3,1012.3,308.9,1.5,2.2,288.8,0.00,8.9,130.0,"04:01:52",1
"21/05/12","04:20",0.0,11.5,84.0,1012.3,319.4,1.6,2.1,310.5,0.00,8.9,130.0,"04:16:40",1
"21/05/12","04:30",0.0,11.4,84.0,1012.1,340.5,1.1,1.8,334.3,0.00,8.8,130.0,"04:20:56",1
"21/05/12","04:40",0.0,11.1,84.4,1012.3,321.8,1.6,2.7,337.9,0.00,8.6,130.0,"04:31:20",1
"21/05/12","04:50",0.0,10.8,84.9,1012.6,273.7,0.8,1.4,295.6,0.00,8.4,130.0,"04:43:12",1
"21/05/12","05:00",0.0,10.9,85.5,1012.6,321.4,1.2,2.2,334.5,0.00,8.6,130.0,"04:57:28",1
"21/05/12","05:10",0.0,10.7,86.0,1012.3,311.3,1.5,2.0,334.9,0.00,8.5,130.0,"05:00:40",1
"21/05/12","05:20",0.0,10.7,86.7,1012.6,303.3,1.0,1.4,318.5,0.00,8.6,130.0,"05:10:48",1
"21/05/12","05:30",0.0,11.1,87.1,1012.6,322.8,1.2,2.2,323.2,0.00,9.1,130.0,"05:22:32",1
"21/05/12","05:40",0.0,11.1,87.6,1012.6,323.3,1.2,2.2,317.2,0.00,9.2,130.0,"05:36:00",1
"21/05/12","05:50",0.0,11.3,88.1,1012.3,331.4,1.2,2.4,332.1,0.00,9.4,130.0,"05:49:12",1
"21/05/12","06:00",0.0,11.5,88.4,1012.1,292.7,0.8,1.7,321.4,0.01,9.7,130.0,"05:51:52",1
"21/05/12","06:10",0.0,11.9,89.0,1012.6,305.5,1.5,2.7,324.5,0.01,10.2,130.0,"06:03:20",1
"21/05/12","06:20",0.0,12.5,89.1,1012.3,283.0,0.6,1.6,308.9,0.02,10.8,130.0,"06:12:40",1
"21/05/12","06:30",0.0,13.1,89.3,1012.8,329.9,1.5,3.2,328.3,0.03,11.4,130.0,"06:28:08",1
"21/05/12","06:40",0.0,13.5,89.5,1012.6,323.7,1.0,1.9,316.8,0.05,11.8,130.0,"06:36:08",1
"21/05/12","06:50",0.0,14.1,89.6,1012.8,293.3,1.1,1.7,330.2,0.06,12.5,130.0,"06:46:08",1
"21/05/12","07:00",0.0,14.9,89.7,1013.0,311.2,1.5,1.9,315.5,0.07,13.3,130.0,"06:51:52",1
"21/05/12","07:10",0.0,16.0,89.6,1013.0,319.1,1.0,1.8,320.0,0.10,14.3,130.0,"07:00:48",1
"21/05/12","07:20",0.0,16.8,89.1,1013.3,321.9,0.8,1.4,334.9,0.12,15.0,130.0,"07:14:24",1
"21/05/12","07:30",0.0,17.1,87.9,1013.5,289.7,1.1,2.7,305.9,0.12,15.1,130.0,"07:27:36",1
"21/05/12","07:40",0.0,17.7,86.3,1013.3,326.1,1.0,2.1,336.9,0.13,15.4,130.0,"07:37:12",1
"21/05/12","07:50",0.0,18.3,83.9,1013.5,122.4,1.0,2.7,137.4,0.13,15.6,130.0,"07:42:56",1
"21/05/12","08:00",0.0,18.4,80.9,1013.3,116.6,1.5,3.4,81.5,0.13,15.1,130.0,"07:50:48",1
"21/05/12","08:10",0.0,18.6,79.1,1012.8,120.0,1.5,4.3,117.3,0.13,14.9,130.0,"08:08:24",1
"21/05/12","08:20",0.0,18.7,77.4,1012.8,101.5,1.5,3.3,102.3,0.13,14.7,130.0,"08:16:16",1
"21/05/12","08:30",0.0,18.9,76.4,1012.8,124.9,1.7,3.4,122.3,0.14,14.7,130.0,"08:25:12",1
"21/05/12","08:40",0.0,19.1,75.8,1012.6,115.2,1.6,3.3,99.5,0.15,14.8,130.0,"08:38:32",1
"21/05/12","08:50",0.0,19.1,75.1,1012.6,111.2,1.7,4.5,113.3,0.16,14.6,130.0,"08:41:28",1
"21/05/12","09:00",0.0,19.4,74.6,1012.3,106.5,1.6,3.7,104.1,0.19,14.8,130.0,"08:57:36",1
"21/05/12","09:10",0.0,19.4,73.4,1012.3,114.8,1.7,5.2,115.2,0.17,14.6,130.0,"09:05:20",1
"21/05/12","09:20",0.0,19.6,72.4,1012.6,99.8,1.7,4.3,123.2,0.20,14.5,130.0,"09:17:36",1
"21/05/12","09:30",0.0,19.9,71.1,1012.3,114.3,1.6,3.9,120.9,0.22,14.6,130.0,"09:26:32",1
"21/05/12","09:40",0.0,20.1,69.8,1012.8,119.9,1.6,4.0,132.9,0.20,14.5,130.0,"09:34:08",1
"21/05/12","09:50",0.0,20.3,68.2,1012.3,106.3,1.5,2.8,120.0,0.23,14.3,130.0,"09:45:12",1
"21/05/12","10:00",0.0,20.4,67.3,1012.1,109.5,1.6,3.7,126.9,0.21,14.2,130.0,"09:58:48",1
"21/05/12","10:10",0.0,20.8,67.4,1012.1,117.6,1.8,4.3,151.3,0.23,14.6,130.0,"10:03:44",1
"21/05/12","10:20",0.0,20.7,66.7,1012.1,119.8,2.2,4.8,140.8,0.25,14.3,130.0,"10:10:02",1
"21/05/12","10:30",0.0,20.7,65.9,1012.6,120.6,2.0,3.6,153.5,0.23,14.1,130.0,"10:21:36",1
"21/05/12","10:40",0.0,20.5,65.5,1012.1,119.3,2.1,4.5,93.2,0.17,13.9,130.0,"10:35:52",1
"21/05/12","10:50",0.0,20.2,66.3,1012.3,128.2,2.2,4.4,148.2,0.11,13.8,130.0,"10:42:00",1
"21/05/12","11:00",0.0,20.1,66.3,1012.3,110.0,2.1,3.7,125.8,0.06,13.7,130.0,"10:59:12",1
"21/05/12","11:10",0.0,20.0,66.9,1012.3,116.1,2.1,4.4,123.3,0.05,13.7,130.0,"11:03:28",1
"21/05/12","11:20",0.0,20.0,67.0,1012.6,119.7,2.5,5.0,108.0,0.06,13.7,130.0,"11:16:56",1
"21/05/12","11:30",0.0,19.8,67.3,1012.6,116.8,2.6,6.0,118.2,0.05,13.6,130.0,"11:22:56",1
"21/05/12","11:40",0.0,19.8,67.8,1012.1,112.3,2.5,5.6,101.2,0.06,13.7,130.0,"11:38:40",1
"21/05/12","11:50",0.0,19.6,68.3,1012.6,125.4,2.6,5.6,86.6,0.05,13.6,130.0,"11:42:32",1
"21/05/12","12:00",0.0,19.5,68.7,1012.8,106.6,2.2,5.4,119.9,0.03,13.6,130.0,"11:52:56",1
"21/05/12","12:10",0.0,19.4,69.3,1012.8,125.1,2.1,4.5,150.5,0.03,13.7,130.0,"12:08:32",1
"21/05/12","12:20",0.0,19.5,69.8,1012.8,123.7,1.7,4.5,139.7,0.06,13.9,130.0,"12:12:56",1
"21/05/12","12:30",0.0,19.6,69.6,1012.8,114.5,1.7,3.9,100.6,0.07,13.9,130.0,"12:29:44",1
"21/05/12","12:40",0.0,19.6,69.3,1012.3,115.6,1.7,4.3,97.9,0.06,13.9,130.0,"12:38:48",1
"21/05/12","12:50",0.0,19.5,69.6,1012.6,107.2,1.6,3.2,125.9,0.05,13.8,130.0,"12:42:48",1
"21/05/12","13:00",0.0,19.5,69.6,1012.8,109.7,2.0,3.9,121.4,0.06,13.8,130.0,"12:57:04",1
"21/05/12","13:10",0.0,19.5,69.8,1012.8,111.6,1.7,4.5,112.9,0.07,13.9,130.0,"13:07:44",1
"21/05/12","13:20",0.0,19.4,70.0,1012.8,100.3,1.5,3.4,118.7,0.04,13.8,130.0,"13:11:12",1
"21/05/12","13:30",0.0,19.3,70.5,1012.6,97.9,1.8,4.3,124.9,0.03,13.8,130.0,"13:25:36",1
"21/05/12","13:40",0.0,19.2,71.1,1012.3,105.0,1.5,2.6,120.2,0.03,13.9,130.0,"13:32:08",1
"21/05/12","13:50",0.0,19.1,71.8,1012.1,106.2,1.6,3.4,123.7,0.03,13.9,130.0,"13:44:00",1
"21/05/12","14:00",0.0,19.1,72.9,1012.3,112.8,1.2,2.5,115.3,0.03,14.2,130.0,"13:50:08",1
"21/05/12","14:10",0.0,18.9,73.6,1012.3,104.5,1.6,3.1,103.7,0.04,14.1,130.0,"14:07:36",1
"21/05/12","14:20",0.0,19.0,73.8,1012.1,95.4,1.3,3.9,127.3,0.03,14.3,130.0,"14:18:16",1
"21/05/12","14:30",0.0,18.9,74.4,1012.3,105.2,1.3,3.1,121.9,0.02,14.3,130.0,"14:20:16",1
"21/05/12","14:40",0.0,18.5,76.1,1012.6,107.5,1.6,3.6,131.0,0.01,14.3,130.0,"14:33:12",1
"21/05/12","14:50",0.0,18.2,77.8,1012.6,120.2,1.7,3.5,93.8,0.01,14.3,130.0,"14:41:12",1
"21/05/12","15:00",0.2,17.9,79.3,1011.9,92.0,1.3,3.4,102.4,0.01,14.3,130.0,"14:59:12",1
"21/05/12","15:10",0.2,17.6,80.7,1012.1,102.1,1.8,4.0,130.3,0.01,14.3,130.0,"15:04:40",1
"21/05/12","15:20",0.2,17.4,82.1,1012.3,96.6,1.5,3.4,98.0,0.02,14.4,130.0,"15:17:12",1
"21/05/12","15:30",0.2,17.2,83.5,1012.3,100.4,1.5,4.5,86.4,0.03,14.4,130.0,"15:21:36",1
"21/05/12","15:40",0.0,17.3,84.6,1012.3,83.3,1.2,3.9,120.5,0.05,14.7,130.0,"15:39:52",1
"21/05/12","15:50",0.2,17.2,85.3,1012.3,91.5,1.2,2.7,106.4,0.03,14.8,130.0,"15:49:52",1
"21/05/12","16:00",0.4,17.2,86.0,1012.3,109.5,1.2,3.4,125.7,0.03,14.9,130.0,"15:57:20",1
"21/05/12","16:10",0.2,17.1,86.6,1011.9,103.3,1.0,2.2,114.7,0.03,14.9,130.0,"16:07:04",1
"21/05/12","16:20",0.4,17.0,87.1,1011.9,102.7,1.1,3.2,133.8,0.01,14.9,130.0,"16:19:44",1
"21/05/12","16:30",0.2,16.8,87.7,1012.3,117.0,1.2,3.2,93.3,0.01,14.8,130.0,"16:20:40",1
"21/05/12","16:40",0.2,16.8,88.2,1012.3,112.6,1.1,2.7,129.7,0.01,14.9,130.0,"16:35:04",1
"21/05/12","16:50",0.2,16.7,88.6,1012.6,95.7,1.2,3.6,115.2,0.00,14.8,130.0,"16:49:30",1
"21/05/12","17:00",0.2,16.6,89.1,1012.6,80.4,1.1,3.2,92.7,0.00,14.8,130.0,"16:50:08",1
"21/05/12","17:10",0.4,16.5,89.4,1012.3,76.6,1.2,2.8,128.5,0.00,14.8,130.0,"17:00:16",1
"21/05/12","17:20",0.4,16.3,89.7,1012.3,92.2,1.2,3.1,87.5,0.00,14.6,130.0,"17:11:28",1
"21/05/12","17:30",0.2,16.3,89.9,1012.3,89.4,1.2,2.5,116.1,0.00,14.7,130.0,"17:21:44",1
"21/05/12","17:40",0.2,16.2,90.1,1012.3,94.1,1.6,4.0,121.0,0.00,14.6,130.0,"17:34:56",1
"21/05/12","17:50",0.2,16.2,90.2,1012.3,19.3,0.7,1.9,101.4,0.00,14.6,130.0,"17:41:52",1
"21/05/12","18:00",0.2,16.1,90.5,1012.3,25.1,0.6,1.8,13.8,0.00,14.6,130.0,"17:55:46",1
"21/05/12","18:10",0.0,16.1,90.7,1012.3,18.2,0.5,1.4,64.1,0.00,14.6,130.0,"18:01:28",1
"21/05/12","18:20",0.4,16.1,90.8,1012.3,61.9,0.6,1.4,23.7,0.00,14.6,130.0,"18:13:20",1
"21/05/12","18:30",0.0,16.1,91.1,1012.3,84.8,1.1,2.7,75.8,0.00,14.7,130.0,"18:21:40",1
"21/05/12","18:40",0.2,16.0,91.2,1012.6,54.5,0.8,2.1,34.7,0.00,14.6,130.0,"18:36:56",1
"21/05/12","18:50",0.4,16.0,91.4,1012.6,59.9,0.8,2.0,77.5,0.00,14.6,130.0,"18:46:08",1
"21/05/12","19:00",0.2,16.0,91.6,1012.8,54.0,0.7,2.2,50.3,0.00,14.7,130.0,"18:56:00",1
"21/05/12","19:10",0.0,16.0,91.8,1012.6,74.7,1.2,2.7,0.3,0.00,14.7,130.0,"19:09:08",1
"21/05/12","19:20",0.0,16.0,91.9,1012.8,84.8,1.2,2.8,94.2,0.00,14.7,130.0,"19:13:24",1
"21/05/12","19:30",0.2,16.0,92.1,1012.3,68.1,1.0,2.4,73.2,0.00,14.8,130.0,"19:23:44",1
"21/05/12","19:40",0.0,16.0,92.3,1012.8,86.2,0.8,2.0,6.2,0.00,14.8,130.0,"19:38:56",1
"21/05/12","19:50",0.0,16.0,92.4,1012.8,82.2,1.2,2.8,93.1,0.00,14.8,130.0,"19:47:32",1
"21/05/12","20:00",0.2,16.0,92.4,1012.3,82.1,0.8,2.4,75.8,0.00,14.8,130.0,"19:54:16",1
"21/05/12","20:10",0.0,16.0,92.5,1012.8,75.1,0.8,2.5,38.9,0.00,14.8,130.0,"20:08:08",1
"21/05/12","20:20",0.0,16.2,92.5,1012.8,76.6,1.1,2.4,108.6,0.00,15.0,130.0,"20:10:32",1
"21/05/12","20:30",0.0,16.1,92.5,1012.8,85.1,1.1,3.2,55.9,0.00,14.9,130.0,"20:28:40",1
"21/05/12","20:40",0.0,16.3,92.4,1012.8,116.5,1.6,3.9,121.3,0.00,15.1,130.0,"20:35:04",1
"21/05/12","20:50",0.0,16.3,92.1,1012.8,103.7,1.5,3.3,104.9,0.00,15.1,130.0,"20:42:24",1
"21/05/12","21:00",0.0,16.3,92.1,1012.6,109.2,1.2,2.9,131.6,0.00,15.1,130.0,"20:50:32",1
"21/05/12","21:10",0.0,16.4,91.9,1012.6,83.1,0.8,2.2,95.0,0.00,15.1,130.0,"21:00:24",1
"21/05/12","21:20",0.0,16.4,91.8,1012.8,88.0,1.2,2.4,73.5,0.00,15.1,130.0,"21:15:28",1
"21/05/12","21:30",0.0,16.4,91.6,1012.6,92.6,1.0,3.5,87.7,0.00,15.1,130.0,"21:28:56",1
"21/05/12","21:40",0.0,16.4,91.2,1012.3,97.7,1.5,3.7,128.6,0.00,15.0,130.0,"21:39:52",1
"21/05/12","21:50",0.0,16.5,90.8,1012.1,96.9,1.3,3.2,98.1,0.00,15.0,130.0,"21:40:08",1
"21/05/12","22:00",0.0,16.6,90.3,1012.1,91.8,1.2,4.4,119.3,0.00,15.0,130.0,"21:52:24",1
"21/05/12","22:10",0.0,16.7,89.7,1012.3,83.3,1.1,2.8,96.0,0.00,15.0,130.0,"22:03:36",1
"21/05/12","22:20",0.0,16.8,89.1,1011.6,90.0,1.2,2.9,80.6,0.00,15.0,130.0,"22:11:44",1
"21/05/12","22:30",0.0,16.8,88.5,1011.6,101.8,1.6,4.3,112.9,0.00,14.9,130.0,"22:20:16",1
"21/05/12","22:40",0.0,16.8,87.9,1011.6,74.5,1.0,2.6,134.5,0.00,14.8,130.0,"22:39:12",1
"21/05/12","22:50",0.0,16.9,87.3,1011.6,71.9,1.1,2.9,121.4,0.00,14.8,130.0,"22:40:08",1
"21/05/12","23:00",0.0,17.0,86.5,1011.9,101.0,1.2,2.5,110.0,0.00,14.8,130.0,"22:53:36",1
"21/05/12","23:10",0.0,17.1,85.7,1011.9,91.7,1.1,2.5,97.4,0.00,14.7,130.0,"23:07:36",1
"21/05/12","23:20",0.0,17.1,85.1,1011.6,101.6,1.1,3.1,140.5,0.00,14.6,130.0,"23:18:32",1
"21/05/12","23:30",0.0,17.1,84.5,1011.2,95.6,1.2,4.4,121.0,0.00,14.5,130.0,"23:21:36",1
"21/05/12","23:40",0.0,17.1,83.8,1011.9,75.3,1.3,3.9,113.8,0.00,14.4,130.0,"23:31:44",1
"21/05/12","23:50",0.0,17.2,83.3,1011.6,98.1,1.2,3.3,95.4,0.00,14.4,130.0,"23:46:16",1
"21/05/12","24:00",0.0,17.2,82.8,1011.6,94.0,1.2,3.6,49.0,0.00,14.3,130.0,"23:54:16",1
